Location: New Frontier Mobile Home Park
(32.8448°N, 116.9675°W)
Time: 21:08:58
(UTC+00:00)

H-2A R/B (2) - Pass Details

Date: 14 July 2020
Orbit: 454 x 34388 km, 28.4° (Epoch: 12 August)

Event Time Altitude Azimuth Distance (km) Brightness Sun altitude
Exits shadow 10:32:10 21° 136° (SE) 1,407 3.3 -23.8°
Drops below altitude 10° 10:33:34 10° 112° (ESE) 1,777 4.1 -23.6°
Sets 10:35:15 0° 98° (E) 2,482 5.1 -23.3°
